Location: Dumpton Point
(51.3500°N, 1.4433°E)
Time: 22:55:30
(UTC+00:00)

Vanguard 1 - Pass Details

Date: 02 October 2022
Orbit: 650 x 3831 km, 34.2° (Epoch: 03 December)

Event Time Altitude Azimuth Distance (km) Brightness Sun altitude
Rises 18:06:33 0° 261° (W) 5,329 15.9 -6.5°
Reaches altitude 10° 18:12:14 10° 243° (WSW) 3,650 14.0 -7.4°
Maximum altitude 18:16:56 16° 210° (SSW) 2,684 12.6 -8.2°
Drops below altitude 10° 18:20:35 10° 175° (S) 2,689 12.2 -8.7°
Sets 18:23:48 0° 151° (SSE) 3,321 12.5 -9.2°
